Location: Hac?musa Deresi
(39.1694°N, 32.2508°E)
Time: 15:38:09
(UTC+00:00)

Cosmos 1000 Rocket - Pass Details

Date: 22 April 2026
Orbit: 952 x 992 km, 82.9° (Epoch: 11 May)

Event Time Altitude Azimuth Distance (km) Brightness Sun altitude
Rises 18:08:28 0° 355° (N) 3,642 8.1 -17.2°
Reaches altitude 10° 18:10:59 10° 358° (N) 2,689 7.3 -17.6°
Maximum altitude 18:17:07 70° 82° (E) 1,008 4.4 -18.6°
Enters shadow 18:20:47 25° 161° (SSE) 1,802 5.4 -19.2°
